Weather History for Macomb, IL

Change the Weather History Date:

Saturday, March 29, 2014

  Actual Average (KBRL) Record (KBRL)
Temperature  
Mean Temperature 39 °F 47 °F  
Max Temperature 47 °F 58 °F 88 °F (1986)
Min Temperature 31 °F 37 °F 10 °F (1969)
Degree Days  
Heating Degree Days 26 18  
Month to date heating degree days 694  
Since 1 July heating degree days 5072  
Cooling Degree Days 0 0  
Month to date cooling degree days 0  
Year to date cooling degree days 0  
Moisture  
Dew Point 33 °F    
Average Humidity 83    
Maximum Humidity 95    
Minimum Humidity 59    
Precipitation  
Precipitation 0.00 in 0.10 in 0.79 in (1960)
Month to date precipitation 2.59  
Year to date precipitation 5.45  
Sea Level Pressure  
Sea Level Pressure 30.23 in    
Wind  
Wind Speed 7 mph (NNW)    
Max Wind Speed 12 mph    
Max Gust Speed 18 mph    
Visibility 7 miles    
Events      
T = Trace of Precipitation, MM = Missing Value Source: NWS Daily Summary

Daily Weather History Graph

Daily Weather History Graph

Search for Another Location

Airport:

Trip Planner

Search our weather history database for the weather conditions in past years. The results will help you decide how hot, cold, wet, or windy it might be!

Date:

Astronomy

Mar. 29, 2014 Rise Set
Actual Time 6:51 AM CDT 7:24 PM CDT
Civil Twilight 6:23 AM CDT 7:51 PM CDT
Nautical Twilight 5:51 AM CDT 8:24 PM CDT
Astronomical Twilight 5:18 AM CDT 8:57 PM CDT
Moon 6:00 AM CDT (3/29) 6:29 PM CDT (3/29)
Length of Visible Light 13h 27m
Length of Day
12h 33m
Waning Crescent, 2% of the Moon is Illuminated
Mar 29
Waning Crescent
Mar 30
New
Apr 7
First Quarter
Apr 15
Full
Apr 22
Last Quarter

Hourly Weather History & Observations

Time (CDT) Temp. Windchill Dew Point Humidity Pressure Visibility Wind Dir Wind Speed Gust Speed Precip Events Conditions
12:15 AM 36.1 °F 33.5 °F 34.7 °F 94% 30.19 in 5.0 mi North 3.5 mph - N/A   Overcast
12:35 AM 36.1 °F 32.3 °F 34.2 °F 93% 30.18 in 5.0 mi North 4.6 mph - N/A   Overcast
1:15 AM 35.8 °F 31.9 °F 34.0 °F 93% 30.18 in 5.0 mi NNW 4.6 mph - N/A   Overcast
1:35 AM 36.0 °F 32.1 °F 34.0 °F 93% 30.18 in 5.0 mi NNW 4.6 mph - N/A   Overcast
1:55 AM 36.0 °F 31.1 °F 34.0 °F 93% 30.19 in 5.0 mi NNW 5.8 mph - N/A   Overcast
2:15 AM 36.0 °F 29.6 °F 33.8 °F 92% 30.19 in 5.0 mi NW 8.1 mph - N/A   Overcast
2:35 AM 35.8 °F 29.4 °F 33.8 °F 92% 30.18 in 5.0 mi NNW 8.1 mph - N/A   Overcast
2:55 AM 35.8 °F 28.8 °F 33.8 °F 92% 30.17 in 5.0 mi NNW 9.2 mph - N/A   Overcast
3:15 AM 35.8 °F 28.8 °F 33.6 °F 92% 30.17 in 5.0 mi NNW 9.2 mph - N/A   Overcast
3:35 AM 35.8 °F 28.8 °F 33.4 °F 91% 30.17 in 5.0 mi NNW 9.2 mph - N/A   Overcast
3:55 AM 35.6 °F 28.0 °F 33.4 °F 92% 30.16 in 5.0 mi NNW 10.4 mph - N/A   Overcast
4:15 AM 35.6 °F 29.9 °F 33.6 °F 92% 30.16 in 5.0 mi NNW 6.9 mph - N/A   Overcast
4:35 AM 35.4 °F 27.8 °F 33.4 °F 92% 30.16 in 5.0 mi NNW 10.4 mph - N/A   Overcast
4:55 AM 35.4 °F 28.4 °F 33.4 °F 92% 30.16 in 5.0 mi NNW 9.2 mph - N/A   Overcast
5:15 AM 35.4 °F 29.0 °F 33.4 °F 92% 30.17 in 5.0 mi North 8.1 mph - N/A   Overcast
5:35 AM 35.2 °F 28.1 °F 33.3 °F 92% 30.17 in 5.0 mi North 9.2 mph - N/A   Overcast
5:55 AM 35.2 °F 28.8 °F 33.3 °F 92% 30.18 in 5.0 mi North 8.1 mph - N/A   Overcast
6:15 AM 35.2 °F 28.8 °F 33.3 °F 92% 30.18 in 5.0 mi North 8.1 mph - N/A   Overcast
6:35 AM 35.2 °F 28.8 °F 33.3 °F 92% 30.19 in 5.0 mi North 8.1 mph - N/A   Overcast
6:55 AM 35.1 °F 28.6 °F 33.1 °F 92% 30.19 in 5.0 mi North 8.1 mph - N/A   Overcast
7:15 AM 35.1 °F 29.3 °F 33.1 °F 92% 30.20 in 5.0 mi NNW 6.9 mph - N/A   Overcast
7:35 AM 35.1 °F 28.6 °F 33.3 °F 93% 30.21 in 4.0 mi NNW 8.1 mph - N/A   Overcast
7:55 AM 35.1 °F 27.9 °F 33.3 °F 93% 30.22 in 4.0 mi North 9.2 mph - N/A   Overcast
8:15 AM 35.1 °F 27.9 °F 33.3 °F 93% 30.22 in 4.0 mi North 9.2 mph - N/A   Overcast
8:35 AM 35.6 °F 29.2 °F 33.6 °F 92% 30.22 in 4.0 mi North 8.1 mph - N/A   Overcast
8:55 AM 35.6 °F 28.0 °F 33.8 °F 93% 30.24 in 4.0 mi NNW 10.4 mph - N/A   Overcast
9:15 AM 35.8 °F 29.4 °F 33.8 °F 92% 30.24 in 4.0 mi NNW 8.1 mph - N/A   Overcast
9:35 AM 36.5 °F 29.2 °F 33.8 °F 90% 30.24 in 5.0 mi NNW 10.4 mph - N/A   Overcast
9:55 AM 36.9 °F 29.6 °F 33.8 °F 89% 30.25 in 5.0 mi North 10.4 mph - N/A   Overcast
10:15 AM 36.9 °F 30.1 °F 33.8 °F 89% 30.25 in 5.0 mi North 9.2 mph - N/A   Overcast
10:35 AM 37.2 °F 30.0 °F 34.0 °F 88% 30.26 in 5.0 mi North 10.4 mph - N/A   Overcast
10:55 AM 37.4 °F 31.4 °F 34.2 °F 88% 30.26 in 5.0 mi North 8.1 mph - N/A   Overcast
11:15 AM 37.8 °F 31.3 °F 34.0 °F 86% 30.26 in 4.0 mi North 9.2 mph - N/A   Overcast
11:35 AM 38.5 °F 32.7 °F 34.2 °F 84% 30.26 in 4.0 mi North 8.1 mph - N/A   Haze
11:55 AM 39.2 °F 33.6 °F 34.2 °F 82% 30.26 in 5.0 mi North 8.1 mph - N/A   Haze
12:15 PM 39.2 °F 32.5 °F 33.3 °F 79% 30.26 in 5.0 mi North 10.4 mph - N/A   Haze
12:35 PM 39.6 °F 33.0 °F 32.9 °F 77% 30.26 in 5.0 mi North 10.4 mph - N/A   Haze
12:55 PM 39.6 °F 32.5 °F 32.5 °F 76% 30.26 in 7.0 mi NNE 11.5 mph - N/A   Overcast
1:15 PM 39.7 °F 32.7 °F 32.4 °F 75% 30.26 in 7.0 mi North 11.5 mph - N/A   Overcast
1:35 PM 39.9 °F 32.9 °F 32.7 °F 75% 30.25 in 5.0 mi North 11.5 mph - N/A   Haze
1:55 PM 40.3 °F 33.9 °F 32.7 °F 74% 30.25 in 7.0 mi NNW 10.4 mph - N/A   Overcast
2:15 PM 40.6 °F 35.4 °F 32.7 °F 73% 30.24 in 7.0 mi NNW 8.1 mph - N/A   Overcast
2:35 PM 41.0 °F 34.7 °F 32.5 °F 72% 30.24 in 7.0 mi NNW 10.4 mph - N/A   Overcast
2:55 PM 42.1 °F 36.1 °F 33.6 °F 72% 30.24 in 7.0 mi NW 10.4 mph - N/A   Overcast
3:15 PM 43.0 °F 36.8 °F 32.9 °F 68% 30.24 in 7.0 mi NNW 11.5 mph - N/A   Mostly Cloudy
3:35 PM 44.1 °F 38.6 °F 33.8 °F 67% 30.24 in 7.0 mi NW 10.4 mph - N/A   Mostly Cloudy
3:55 PM 45.1 °F 39.9 °F 32.9 °F 62% 30.23 in 10.0 mi NNW 10.4 mph 18.4 mph N/A   Mostly Cloudy
4:15 PM 45.9 °F 41.7 °F 33.8 °F 63% 30.23 in 10.0 mi NNW 8.1 mph - N/A   Scattered Clouds
4:35 PM 46.6 °F - 33.1 °F 59% 30.23 in 10.0 mi NNW 9.2 mph - N/A   Clear
4:55 PM 46.4 °F 42.4 °F 33.4 °F 61% 30.23 in 10.0 mi NW 8.1 mph - N/A   Scattered Clouds
5:15 PM 47.3 °F - 33.6 °F 59% 30.23 in 10.0 mi WNW 5.8 mph - N/A   Scattered Clouds
5:35 PM 47.3 °F - 34.3 °F 61% 30.23 in 10.0 mi WNW 9.2 mph - N/A   Scattered Clouds
5:55 PM 46.6 °F - 33.8 °F 61% 30.23 in 10.0 mi NW 5.8 mph - N/A   Scattered Clouds
6:15 PM 47.3 °F - 33.8 °F 59% 30.24 in 10.0 mi NW 6.9 mph - N/A   Scattered Clouds
6:35 PM 46.8 °F - 33.8 °F 61% 30.24 in 10.0 mi NW 5.8 mph - N/A   Scattered Clouds
6:55 PM 45.1 °F 42.0 °F 34.9 °F 67% 30.24 in 10.0 mi West 5.8 mph - N/A   Clear
7:15 PM 43.9 °F 42.3 °F 35.4 °F 72% 30.24 in 10.0 mi West 3.5 mph - N/A   Clear
7:35 PM 41.4 °F 38.4 °F 34.7 °F 77% 30.24 in 10.0 mi West 4.6 mph - N/A   Clear
7:55 PM 39.9 °F 35.8 °F 33.6 °F 78% 30.24 in 10.0 mi West 5.8 mph - N/A   Clear
8:15 PM 38.5 °F 36.1 °F 32.0 °F 78% 30.24 in 10.0 mi WSW 3.5 mph - N/A   Clear
8:35 PM 37.8 °F 33.3 °F 32.0 °F 80% 30.25 in 10.0 mi WSW 5.8 mph - N/A   Clear
8:55 PM 36.7 °F 32.0 °F 31.6 °F 82% 30.25 in 10.0 mi WSW 5.8 mph - N/A   Clear
9:15 PM 37.4 °F 32.8 °F 31.8 °F 80% 30.26 in 10.0 mi WSW 5.8 mph - N/A   Clear
9:35 PM 35.6 °F 31.7 °F 31.3 °F 84% 30.26 in 10.0 mi West 4.6 mph - N/A   Clear
9:55 PM 34.3 °F 31.4 °F 30.9 °F 87% 30.26 in 10.0 mi WSW 3.5 mph - N/A   Clear
10:15 PM 32.4 °F - 30.2 °F 92% 30.26 in 7.0 mi Calm Calm - N/A   Clear
10:35 PM 32.0 °F - 30.4 °F 94% 30.26 in 7.0 mi Calm Calm - N/A   Clear
10:55 PM 32.0 °F 28.7 °F 30.7 °F 95% 30.26 in 7.0 mi East 3.5 mph - N/A   Clear
11:15 PM 31.5 °F 28.1 °F 29.7 °F 93% 30.26 in 7.0 mi SE 3.5 mph - N/A   Clear
11:35 PM 32.0 °F - 30.6 °F 94% 30.26 in 7.0 mi Calm Calm - N/A   Clear
11:55 PM 32.7 °F - 31.1 °F 94% 30.27 in 7.0 mi Calm Calm - N/A   Clear